Regional Weather Roundup
Issued by NWS Charleston, SC

Home | Current Version | Previous Version | Text Only | Print | Product List | Glossary On
Versions: 1 2 3 4 5 6 7 8 9 10 11 12 13 14 15 16 17 18 19 20 21 22 23 24 25 26 27 28 29 30 31 32 33 34 35 36 37 38 39 40 41 42 43 44 45 46 47 48 49 50
000
ASUS42 KCHS 292213
RWRCHS

REGIONAL WEATHER ROUNDUP
NATIONAL WEATHER SERVICE CHARLESTON SC
600 PM EDT FRI JUL 29 2016

NOTE: "FAIR" INDICATES FEW OR NO CLOUDS BELOW 12,000 FEET WITH NO
SIGNIFICANT WEATHER AND/OR OBSTRUCTIONS TO VISIBILITY.

NOT ALL STATIONS ARE QUALITY CONTROLLED. USE DATA WITH CAUTION...
ESPECIALLY DEWPOINT OBSERVATIONS.

SCZ027-030-031-034>040-042>050-292300-
...SOUTHEAST SOUTH CAROLINA...

CITY           SKY/WX    TMP DP  RH WIND       PRES   REMARKS
N CHARLESTON   MOSUNNY   97  68  38 W12       29.92R HX 102
WATERFRONT PRK   N/A     89  79  72 SW12      29.91F HX 104
MOUNT PLEASANT FAIR      91  79  66 S14G20    29.92S HX 107
JOHNS ISLAND   FAIR      91  79  66 S15G23    29.93S HX 107
PINOPOLIS        N/A     93  73  52 W7        29.82F HX 102
MONCKS CORNER  FAIR      93  63  36 SW7       29.91S HX  94
SUMMERVILLE    NOT AVBL
BEAUFORT MCAS  MOSUNNY   99  65  32 W12       29.93S HX 102
BEAUFORT ARPT  FAIR      90  77  66 S14G20    29.93S HAZE    HX 102
HILTON HEAD IS MOSUNNY   95  79  59 S12G18    29.95S HX 112
WALTERBORO     CLEAR     99  64  32 W10G16    29.93S HX 101
ALLENDALE      FAIR      97  68  38 VRB7      29.92S HX 101

...SOUTHERN MIDLANDS AND PEE DEE...

CITY           SKY/WX    TMP DP  RH WIND       PRES   REMARKS
GEORGETOWN     FAIR      95  66  38 W12G17    29.91S HX  98
KINGSTREE      FAIR      95  68  41 SW5       29.90S HX  99
ORANGEBURG     SUNNY     97  66  36 W14       29.92S HX 100
BARNWELL       NOT AVBL
AIKEN          MOCLDY    95  64  36 W12       29.96S HX  97
MANNING        FAIR      97  66  36 SW10      29.90S HX 100
COLUMBIA       PTSUNNY   97  67  37 W14       29.89S HX 101
SUMTER         PTSUNNY   85  75  73 N7        29.89R HAZE    HX  93
FLORENCE       PTSUNNY   95  70  44 SW9       29.90S HX 101
MYRTLE BEACH   MOSUNNY   97  70  41 W9        29.92R HX 103
N MYRTLE BEACH SUNNY     95  72  47 W5        29.90S HX 103

$$

GAZ063-065-086>088-099>101-113>116-118-119-134>141-150-292300-
...SOUTHEAST GEORGIA...

CITY           SKY/WX    TMP DP  RH WIND       PRES   REMARKS
SAVANNAH ARPT  MOSUNNY   98  66  34 SW8       29.93F HX 101
HUNTER AAF     SUNNY     92  80  68 SE12      29.91F HX 111
FORT STEWART   NOT AVBL
STATESBORO     SUNNY     98  69  39 W8        29.93S HX 104
SYLVANIA       NOT AVBL
CLAXTON        FAIR      98  68  36 SW6       29.93S HX 103

...CSRA...CENTRAL AND FAR SOUTHEAST GEORGIA...

CITY           SKY/WX    TMP DP  RH WIND       PRES   REMARKS
THOMSON        NOT AVBL
AUGUSTA-BUSH   MOSUNNY   96  65  35 W12       29.91S HX  98
AUGUSTA-DANIEL MOSUNNY   97  67  37 W6G18     29.93F HX 101
SWAINSBORO     CLOUDY    95  66  38 W6        29.95S HX  98
VIDALIA        PTSUNNY   99  63  30 SW5       29.94S HX 100
EASTMAN        FAIR      98  43  15 NW7       29.97F HX  94
HAZLEHURST     FAIR      99  66  33 CALM      29.94S HX 102
ALMA           MOSUNNY   97  65  34 W7        29.95F HX  99
WAYCROSS       MOSUNNY  101  71  37 W14       29.95S HX 110
JESUP          FAIR      99  72  41 W8        29.94S HX 107
BAXLEY         FAIR      99  70  39 W8        29.95S HX 105
BRUNSWICK      MOSUNNY   99  72  41 W7        29.95F HX 107
SAINT SIMONS   SUNNY     91  78  65 S13       29.95F HX 106

$$

SCZ027-028-034-036>038-045-046-048>050-GAZ119-141-292300-
...LAKE AND SUPPLEMENTAL COASTAL OBSERVATIONS...

STATION/POSITION TIME  TEMP    WIND        PRES    WAVE   SWELL
                       AIR SEA DIR/SP/G            HT/PER HT/PER/DIR
                 (UTC) (F)     (DEG/KT/KT) (MB)    (FT/S) (FT/S/D)
WINYAH BAY       2045   95     260/  9     1012.0
LAKE MURRAY      2100   94     280/  8/ 13 1011.9F
ACE BASIN NERRS  NOT AVBL
FORT PULASKI     2100   89 88  170/  7/ 15 1014.4F
SAPELO ISLAND    2100   94     160/ 10     1014.0F

$$

ANZ835-935-AMZ111-154-330-350-352-354-370-450-454-472-292300-
...C-MAN AND BUOY OBSERVATIONS...

STATION/POSITION TIME  TEMP    WIND        PRES    WAVE   SWELL
                       AIR SEA DIR/SP/G            HT/PER HT/PER/DIR
                 (UTC) (F)     (DEG/KT/KT) (MB)    (FT/S) (FT/S/D)
BUOY 41004       2150   86 86  210/ 17/ 21 1013.1F   3/ 4   2/140/ 8
BUOY 41008       2150   87 87  160/ 14/ 16 1014.0F   2/ 5
FOLLY BEACH CMAN 2100   87     200/ 16/ 19 1013.7F
CAPERS NEARSHORE 2108   85 85  220/ 19/ 25 1013.1F
FRIPP NEARSHORE  2108   87 88  200/ 17/ 23 1013.1F


STATION/POSITION TIME  TEMP    WIND        PRES    WAVE   SWELL
                       AIR SEA DIR/SP/G            HT/PER HT/PER/DIR
                 (UTC) (F)     (DEG/KT/KT) (MB)    (FT/S) (FT/S/D)
5E ST. MARYS GA  2201      87                N/A     2/ 3
FRYING PAN BUOY  2100   86 85  220/ 16/ 17 1012.8F
BUOY 41025       2150   86 86  230/ 19/ 23 1011.8S   3/ 4   2/140/ 8
CAPE LOOKOUT NC  2200   86     220/  9/ 11 1012.0R
BUOY 41002       2150   85 85  230/ 10/ 10 1015.3F   4/ 6   3/260/ 6
BUOY 41010       2120   86 87  300/  6/  8 1016.6F
ST AUGUSTINE FL  2200   85 87  150/ 14/ 15 1016.5S


$$



USA.gov is the U.S. government's official web portal to all federal, state and local government web resources and services.